Main page
METAR-TAF:

METAR-TAF

Airports :

Metropolis Municipal Airport

Metropolis, Illinois, United States

latitude: 37-11-09N, longitude: 088-45-02W, elevation: 384 ft

Current weather observation

The report was made 41 minutes ago, at 23:15 UTC
Wind 8 mph from the South
Temperature 90°F
Humidity 56%
Pressure 30.01 in. Hg
Visibility: 10 miles
Clear sky

METAR: KM30 142315Z AUTO 19007KT 10SM CLR 32/22 A3001 RMK AO2 T03150220

Time: 18:56 (23:56 UTC)


TAF: missing

Weather observations and forecasts of more than 4000 airports (METAR and TAF reports).

The available stations are represented by yellow and red dots on the map.

Hover mouse over dot to see the name of the station.

Then click to see weather observations and forecasts.

To change the map : click on the green buttons with a black cross to zoom in, on the green button with a dash to zoom out, or on the green arrows for adjacent maps.


METAR-TAF: